Flag for Germany Weather past 2 weeks in Mainz, Rhineland-Palatinate, Germany

Now
36 °F

Light rain. Low clouds.


Feels Like: 29 °F
Forecast: 37 / 41 °F
Wind: 8 mph from South

Location: Wiesbaden Airport

Current Time: Jan 26, 2015 at 12:32:58 PM

Latest Report: Jan 26, 2015 at 11:58 AM


Visibility: N/A

Pressure: 30.25 "Hg

Humidity: 100%

Dew point: 36 °F

Location of MainzLocation

Historic Weather in Mainz — Graph

°F

Mainz temperature yesterday

Maximum temperature yesterday: 39 °F (at 12:58 PM)
Minimum temperature yesterday: 31 °F (at 4:58 AM)
Average temperature yesterday: 36 °F

Past Weeks' High & Low Weather Summary

 TemperatureHumidityPressure
High55 °F (Jan 13, 2:58 PM)100% (Jan 16, 12:59 PM)30.46 "Hg (Jan 16, 12:59 PM)
Low27 °F (Jan 24, 1:58 AM)47% (Jan 13, 1:58 PM)29.63 "Hg (Jan 15, 8:01 PM)
Average37 °F86%30.03 "Hg
* Reported Jan 11 10:58 AM — Jan 26 10:58 AM, Mainz, Weather by CustomWeather, © 2014

Note: Actual official high and low records may vary slightly from our data, if they occured in-between our weather recording intervals... More about our weather records

Advertising

Mainz weather history for previous 24 hours

 ConditionsComfort  
Time TempWeatherWind HumidityBarometerVisibility
10:58 AM
Jan 26
34 °FLight rain. Fog.7 mph100%30.28 "Hg6 mi
9:58 AM34 °FLight rain. Fog.8 mph100%30.29 "Hg5 mi
9:00 AM34 °FLight rain. Fog.8 mph100%30.27 "Hg4 mi
8:58 AM35 °FFog.8 mph99%30.30 "Hg5 mi
8:01 AM34 °FMostly cloudy.8 mph100%30.28 "HgN/A
7:58 AM34 °FMostly cloudy.7 mph99%30.31 "HgN/A
6:59 AM34 °FFog.5 mph100%30.29 "Hg5 mi
6:58 AM34 °FFog.6 mph100%30.32 "Hg5 mi
5:58 AM35 °FLow clouds.6 mph99%30.32 "HgN/A
4:58 AM36 °FLight rain. Fog.2 mph93%30.34 "Hg6 mi
3:58 AM35 °FLow clouds.5 mph99%30.34 "HgN/A
3:04 AM36 °FLight rain. Low clouds.2 mph93%30.34 "HgN/A
2:58 AM36 °FLow clouds.3 mph93%30.37 "HgN/A
1:58 AM35 °FLight rain. Low clouds.3 mph98%30.37 "HgN/A
12:58 AM35 °FLight rain. Low clouds.5 mph100%30.39 "HgN/A
11:58 PM
Jan 25
36 °FLow clouds.3 mph100%30.40 "HgN/A
11:01 PM36 °FLight rain. Overcast.5 mph100%30.38 "HgN/A
10:58 PM36 °FOvercast.5 mph99%30.41 "HgN/A
10:00 PM36 °FOvercast.3 mph100%30.38 "HgN/A
8:58 PM36 °FLight rain. Overcast.2 mph100%30.42 "HgN/A
7:58 PM36 °FLight rain. Mostly cloudy.2 mph95%30.42 "HgN/A
6:58 PM36 °FOvercast.No wind93%30.43 "HgN/A
5:58 PM36 °FOvercast.3 mph95%30.43 "HgN/A
5:03 PM37 °FCloudy.6 mph93%30.39 "HgN/A
4:58 PM37 °FMostly cloudy.7 mph93%30.42 "HgN/A
4:00 PM37 °FMostly cloudy.8 mph93%30.38 "HgN/A
3:58 PM38 °FMostly cloudy.8 mph89%30.41 "HgN/A
2:58 PM38 °FOvercast.8 mph88%30.41 "HgN/A
1:58 PM38 °FOvercast.3 mph88%30.42 "HgN/A
12:58 PM39 °FOvercast.6 mph86%30.43 "HgN/A
Weather by CustomWeather, © 2014

See weather overviewHow to use our weather pages